Location: Gamni
(14.8431°N, 2.9142°W)
Time: 12:40:57
(UTC+00:00)

Daily predictions for brighter satellites

Satellite Brightness Start Highest point End
(mag) Time Altitude Azimuth Time Altitude Azimuth Time Altitude Azimuth
Cosmos 2082 Rocket 2.6 18:57:36 10° S 19:02:48 40° ESE 19:08:01 10° NE
Feng Yun 1-1 Rocket 4.4 18:57:33 10° SSE 19:03:26 75° ENE 19:09:20 10° N
CENTAUR R/B 4.0 18:56:35 10° N 19:04:24 35° ENE 19:12:12 10° SE
SJ-11-01 4.4 19:05:47 10° SSE 19:10:31 88° W 19:15:16 10° NNW
Fermi 3.8 19:08:35 10° WSW 19:12:34 61° SSE 19:16:34 10° ENE
ATLAS 3B CENTAUR R/B 3.1 19:11:01 10° WSW 19:14:03 26° SSW 19:19:14 10° SE
Cosmos 1408 2.5 19:12:15 10° S 19:15:53 89° ESE 19:19:31 10° N
DMSP B5D2-2 4.5 19:13:32 10° N 19:18:42 69° WNW 19:23:54 10° SSW
CZ-4B R/B 4.2 19:19:55 10° NNW 19:22:37 23° WNW 19:25:17 10° SW
Cosmos 1892 3.5 19:19:00 10° SSW 19:22:43 53° W 19:26:24 10° N
IUS-12 SRM-1 4.2 19:13:31 10° WNW 19:23:26 52° SSW 19:26:21 13° SE
Cosmos 2034 Rocket 4.0 19:19:04 10° N 19:25:21 85° E 19:31:42 10° S
Cosmos-2242 3.4 19:21:37 10° NNE 19:25:37 41° E 19:29:37 10° SSE
IRS-1C Rocket 4.1 19:20:55 10° SSE 19:26:10 75° ENE 19:31:25 10° N
Cosmos 1125 Rocket 4.4 19:21:45 10° NNE 19:26:19 29° ENE 19:29:54 14° SE
H-2A R/B 3.6 19:21:52 10° SSW 19:26:51 38° W 19:31:44 10° NNW
Palapa 6 Rocket 2.6 19:27:33 10° WSW 19:31:34 84° NNW 19:34:56 12° ENE
Cosmos 1825 2.0 19:27:54 10° S 19:31:37 71° E 19:35:20 10° N
Cosmos 1825 Rocket 4.5 19:27:32 10° SSW 19:31:45 51° W 19:35:57 10° N
Okean-O 2.6 19:28:36 10° SSE 19:32:59 70° ENE 19:37:23 10° N
Cosmos 2150 Rocket 4.4 19:29:22 10° N 19:34:35 46° ENE 19:39:02 14° SE
USA 238 DEB 4.2 19:28:34 10° NNW 19:35:53 53° ENE 19:42:01 16° SE
USA 238 4.2 19:28:40 10° N 19:36:00 53° ENE 19:42:06 16° SE
Cosmos 2058 3.1 19:32:21 10° SSE 19:36:20 47° E 19:40:20 10° NNE
YAOGAN 1 3.2 19:33:29 10° S 19:37:43 56° W 19:41:56 10° NNW
Cosmos 1812 Rocket 4.1 19:34:16 10° NNW 19:38:39 61° W 19:43:02 10° S
Centaur AC-42 3.2 19:32:20 10° SW 19:40:43 27° S 19:42:47 20° SE
USA 306 3.9 19:37:01 10° N 19:40:48 31° NE 19:42:33 22° E
Cosmos 2298 Rocket 4.1 19:35:53 10° N 19:41:07 60° ENE 19:45:33 14° SSE
Cosmos 1242 Rocket 4.4 19:39:06 10° NE 19:40:30 15° ENE 19:40:30 15° ENE
RESURS DK-1 3.2 19:37:36 10° SSW 19:41:38 53° WNW 19:45:40 10° N
CSL-04 Debris 4.2 19:38:47 10° SSE 19:44:11 66° ENE 19:49:37 10° N
Meteor 2-13 Rocket 4.4 19:39:35 10° S 19:45:40 67° E 19:51:42 10° NNE
CZ-4 R/B 3.2 19:44:16 10° SSW 19:47:59 33° W 19:51:45 10° NW
Hubble Space Telescope 3.4 19:48:53 10° NNW 19:50:34 12° N 19:52:15 10° NNE
Cosmos 1538 Rocket 4.1 19:46:58 10° S 19:52:05 53° ESE 19:57:08 10° NNE
Cosmos 2221 4.4 19:55:00 10° NE 19:56:26 15° ENE 19:56:26 15° ENE
CSL-04 Rocket 3.6 19:55:19 12° SSE 20:00:31 89° ENE 20:05:57 10° NNW
MetOp-A 4.0 19:57:39 16° SSE 20:02:01 83° ENE 20:07:23 10° N
USA 186 1.6 20:04:59 74° ESE 20:05:10 79° E 20:08:18 10° N
Cosmos 1634 Rocket 3.9 19:59:34 10° N 20:05:48 80° E 20:10:58 15° S
USA 32 3.9 20:01:13 10° N 20:06:27 78° E 20:09:57 21° S
Aurora 2 Rocket 4.3 20:01:12 10° W 20:07:59 67° NNW 20:17:22 10° ENE
Ariane Rocket 4.2 20:11:01 25° ENE 20:11:01 25° ENE 20:14:32 10° NNE
ERS-2 1.9 20:10:39 10° NNE 20:14:05 76° ENE 20:14:05 76° ENE
Centaur D AC-28 4.3 20:19:38 10° WNW 20:24:23 37° N 20:42:03 10° ENE
Helios 1A Rocket 2.9 20:27:52 72° N 20:27:52 72° N 20:31:30 10° NNW
GPS 2-12 Rocket1 3.1 20:24:33 10° W 20:29:15 68° SSW 20:29:15 68° SSW
Cosmos 1076 Rocket 3.4 20:29:34 83° WNW 20:29:34 83° WNW 20:33:49 10° N
Ariane H10+ 4.5 20:23:38 10° SW 20:31:53 49° SSE 20:40:04 35° ESE
OBJECT-B 2.5 20:33:46 32° WNW 20:33:46 32° WNW 20:35:58 10° NNW
ATLAS 5 CENTAUR R/B 3.1 20:32:22 10° WNW 20:32:50 14° WNW 20:32:50 14° WNW
SJ-6B 3.9 20:40:45 41° WNW 20:40:45 41° WNW 20:43:39 10° NNW
USA 307 3.8 20:37:43 10° NW 20:41:11 46° W 20:41:11 46° W
Cosmos 1092 Rocket 4.4 20:48:16 46° NE 20:48:16 46° NE 20:52:53 10° NNE
Meteor 2-19 Rocket 4.4 20:47:31 68° NE 20:47:31 68° NE 20:52:58 10° N
Cosmos 1697 Rocket 2.8 20:42:03 10° N 20:47:02 65° NNE 20:47:02 65° NNE
CENTAUR R/B 4.2 20:46:59 10° NW 20:55:08 42° WSW 21:00:15 22° SSW
Cosmos 2279 Rocket 4.4 20:49:38 10° NNW 20:55:40 59° W 20:57:24 44° SW
ATLAS 3B R/B 4.3 20:52:44 10° NNE 20:56:42 21° NE 20:56:42 21° NE
USA 267 4.4 20:56:51 10° NE 21:06:55 30° SSW 21:09:57 10° SW
Skynet4D Del rocket 4.3 20:55:43 10° WNW 21:04:08 90° NNE 21:04:34 82° ESE
Resurs 01 Rocket 4.5 21:35:58 14° NNW 21:35:58 14° NNW 21:36:38 10° NNW
Cosmos 1980 Rocket 3.9 21:30:22 10° NNW 21:32:51 28° NNW 21:32:51 28° NNW
CZ-3 Stage 3 4.4 12:15:59 10° WSW 21:38:54 88° SSE 21:40:13 74° ENE
ATLAS 2A CENTAUR R/B 4.0 21:39:33 10° WNW 21:58:49 52° WSW 21:58:49 52° WSW
